Retour au catalogue

FENGYUN 1C DEB

ActifPO
NORAD 32123·DEBRIS·🇨🇳 China

Lancé May 10, 1999 depuis Taiyuan Satellite Launch Center

Loading…

Prochains Passages (prochaines 24 heures)

TLE

FraisSource: Space-Track

Époque: Sep 14, 2026, 19:12 UTC

1 32123U 99025CRR 26257.80048698  .00000871  00000-0  15515-3 0  9997
2 32123  98.9499  93.4196 0158868 167.0425 204.9964 14.62206268754089

Suivez FENGYUN 1C DEB en temps réel avec AllMySat

Download on the App Store